Home   Weather   Datteln   Past weeks

Flag for Germany Past Weather in Datteln, North Rhine-Westphalia, Germany — Yesterday and Last 2 Weeks

Now
27 °F

Ice fog.


Feels Like: 21 °F
Forecast: 27 / 35 °F
Wind: 5 mph from Southwest

Location: Dortmund / Wickede

Current Time: Jan 23, 2017 at 6:14:32 pm

Latest Report: Jan 23, 2017 at 5:20 pm


Visibility: 0 mi

Pressure: 30.30 "Hg

Humidity: 93%

Dew Point: 25 °F

Location of DattelnLocation

Past Weather in Datteln — Graph

°F

Datteln Temperature Yesterday

Maximum temperature yesterday: 37 °F (at 1:20 pm)
Minimum temperature yesterday: 21 °F (at 5:50 am)
Average temperature yesterday: 29 °F

High & Low Weather Summary for the Past Weeks

 TemperatureHumidityPressure
High43 °F (Jan 11, 2:20 pm)100% (Jan 8, 8:50 pm)30.69 "Hg (Jan 8, 8:50 pm)
Low19 °F (Jan 19, 1:20 am)41% (Jan 20, 2:20 pm)29.06 "Hg (Jan 13, 5:20 am)
Average31 °F80%30.16 "Hg
* Reported Jan 8 4:20 pm — Jan 23 4:50 pm, Datteln, Weather by CustomWeather, © 2017

Note: Actual official high and low records may vary slightly from our data, if they occured in-between our weather recording intervals... More about our weather records

Advertising

Datteln Weather History for the Previous 24 Hours

Scroll right to see more
 ConditionsComfort  
Time TempWeatherWind HumidityBarometerVisibility
4:50 pm
Mon, Jan 23
27 °FIce fog.5 mph93%30.30 "Hg1 mi
4:20 pm27 °FIce fog.5 mph93%30.30 "Hg1 mi
3:50 pm27 °FIce fog.3 mph93%30.30 "Hg1 mi
3:20 pm27 °FIce fog.No wind93%30.30 "Hg1 mi
2:50 pm27 °FIce fog.No wind93%30.30 "Hg1 mi
2:20 pm25 °FIce fog.No wind93%30.30 "Hg1 mi
1:50 pm25 °FIce fog.No wind93%30.30 "Hg1 mi
1:20 pm25 °FIce fog.No wind93%30.30 "Hg1 mi
12:50 pm25 °FIce fog.No wind93%30.33 "Hg1 mi
12:20 pm25 °FIce fog.3 mph93%30.33 "Hg1 mi
11:50 am25 °FIce fog.No wind93%30.33 "Hg1 mi
11:20 am25 °FIce fog.No wind86%30.33 "Hg1 mi
10:50 am23 °FIce fog.No wind93%30.33 "Hg1 mi
10:20 am23 °FIce fog.No wind93%30.30 "Hg1 mi
9:50 am23 °FIce fog.3 mph86%30.30 "Hg1 mi
9:20 am23 °FIce fog.5 mph93%30.30 "Hg1 mi
8:50 am23 °FIce fog.3 mph93%30.30 "Hg1 mi
8:20 am21 °FIce fog.2 mph93%30.30 "Hg1 mi
7:50 am21 °FIce fog.5 mph93%30.30 "Hg0 mi
7:20 am21 °FIce fog.6 mph86%30.30 "Hg2 mi
6:50 am19 °FLow clouds.2 mph86%30.27 "Hg4 mi
6:20 am19 °FClear.7 mph86%30.27 "Hg10 mi
5:50 am19 °FClear.6 mph86%30.27 "Hg10 mi
5:20 am21 °FClear.6 mph86%30.27 "Hg10 mi
9:50 pm
Sun, Jan 22
25 °FClear.7 mph80%30.27 "Hg10 mi
9:20 pm25 °FClear.7 mph80%30.27 "Hg10 mi
8:50 pm25 °FClear.6 mph80%30.27 "Hg10 mi
8:20 pm25 °FClear.5 mph74%30.27 "Hg10 mi
7:50 pm27 °FClear.5 mph74%30.27 "Hg10 mi
7:20 pm27 °FClear.1 mph69%30.27 "Hg10 mi
6:50 pm28 °FClear.No wind69%30.27 "Hg10 mi
6:20 pm30 °FClear.No wind64%30.27 "Hg10 mi
Weather by CustomWeather, © 2017

See weather overviewHow to use our weather pages